FREGAT R/B, 45609

Orbit data source: Space-Track

FREGAT R/B, 45609 is space debris originally from a launch on Fri, 22 May 2020 UTC launched from the Plesetsk Missile And Space Complex (PKMTR). Debris objects in space refer to the collection of defunct objects orbiting the Earth. Examples of debris include non-operational satellites, rocket bodies, and fragments generated from explosions, collisions, or faulty payload assembly.

Loading next visibility...
Identifier
45609, 2020-031B
Orbit
Molniya
Country
Flag of CISCIS
Related business
Manufacturer
Lavochkin
Mission
Spacecraft
Bus & Motor
FREGAT, Unknown motor
Mass
1,000 kg wet, 1,000 kg dry
Launch date (UTC)
2020-05-22 (6 years ago)
Launch vehicle
Unknown
Launch site
Plesetsk Missile And Space Complex (PKMTR)
Object type
Payload
Rocket body
Debris
Shape & HBR
Cyl, 1.7 m
Radar Cross Section
8.354 m², Large (>1 m²)

Expand to show TLE details & history
Last TLE update: 1 day ago

TLE from 1 day ago
0 FREGAT R/B
1 45609U 20031B   26124.82956627 -.00001160  00000-0  00000-0 0  9999
2 45609  63.5263  69.0141 7165227 258.2439  20.3065  2.01473820 43780
Epoch: 2026-05-04T19:54Z
TLE epoch observation values (Epoch: 2026-05-04T19:54:34.525Z)
Latitude
-0.00005°
Longitude
-92.36981°
Altitude
8,770.894 km
Speed
6.13 km/s
True Right ascension
04h 35m 56s
True Declination
0° 00' 00"
Sunlit
Object was in daylight at epoch
Visualization orbit readout
Latitude
Unknown
Longitude
Unknown
Altitude
Unknown
Speed
Unknown
Apparent Right ascension
Unknown
Apparent Declination
Unknown
Sunlit
N/A
Visualization observer readout
Local Sidereal Time
06:10:01
Azimuth
Unknown
Elevation
Unknown
Doppler factor
Unknown
Orbital elements
Apogee altitude
39,074.214 km
Perigee altitude
1,128.149 km
Semi-major axis
26,479.318 km
Eccentricity
0.71652
Inclination
63.5263°
RAAN
69.0141°
Arg. of periapsis
258.2439°
True anomaly
101.83564°
Mean anomaly
20.3065°
Eccentric anomaly
53.16409°
Mean motion
0.50371 °/min
Orbital period
714.69 mins
BSTAR
0
Loading maneuver chart data...
Computing Atmospheric mass density...
Loading historical data...
Loading historical data...
Loading historical data...
Loading historical data...
Loading historical data...
Loading historical data...
Loading historical data...
Other satellites on launch #31 in the year 2020 (2020-05-22 UTC)

Documentation

Showing up to 5 results
|